{"data":{"norad_id":59258,"intl_designator":"2024-050E","name":"STARLINK-31637","alt_names":[],"object_type":"PAYLOAD","status":"ACTIVE","operator":null,"country":"US","launch_date":"2024-03-19","launch_site_code":"AFWTR","launch_vehicle":null,"mission":null,"orbit_class":"UNKNOWN","rcs_meters":null,"size_class":null,"mass_kg":null,"dimensions":null,"purposes":["comms"],"wikipedia_slug":null,"has_3d_model":false,"image_url":null,"decayed_at":null,"tle_current":{"epoch":"2026-05-25T03:00:57.419712Z","epoch_age_seconds":60253,"freshness":"FRESH","line1":"1 59258U 24050E   26145.12566458  .00000551  00000+0  30736-4 0  9998","line2":"2 59258  53.1596 185.7893 0001092  73.6771 286.4350 15.30195608122252","mean_motion":15.30195608,"eccentricity":0.0001092,"inclination_deg":53.1596,"raan_deg":185.7893,"arg_perigee_deg":73.6771,"mean_anomaly_deg":286.435,"bstar":3.0736e-5,"rev_number":12225,"period_min":94.10561580961,"perigee_km":474.47979569302,"apogee_km":475.97657064903,"semimajor_km":6853.365183171,"source":"CELESTRAK","updated_at":"2026-05-25T13:38:18.874603Z"}}}